Content
SEND FEEDBACK

Daily
Averages
Monthly
Summary
United States of America

ST. LOUIS, MISSOURI


Home > North America > United States > Missouri
Elevation: 163 meters     Latitude: 38 45N     Longitude: 090 22W

WEATHER
 
SELECT A DAY
Number of Records: 196,674;   Date Range: 1/1/95 - 9/21/14
 
SHARE

PRINT THIS DATA

[ ← Previous Day ]
WEATHER ALMANAC - 25 APRIL, 2013
[ Next Day → ]
[ °F ]   °C
Weather ElementAverageHighLow
Temperature11.2 °C17.8 °C (3:54 pm)2.2 °C (1:54 am)
Dewpoint-0.2 °C4.4 °C (8:54 pm)-3.9 °C (10:54 am)
Humidity49.1 %89 % (2:54 am)28 % (5:54 pm)
Barometer1026.1 hPa1028.1 hPa (10:54 am)1024.4 hPa (2:54 am)
Wind Speed9.2 km/h18.5 km/h (4:54 am)
Wind Gust33.3 km/h (12:54 pm)
Weather ElementAverage
Visibility16.1 km
Wind DirectionESE (110.4 °)

Weather ElementTotal
Precipitation---
Heating Degree Days8.3 (Base 18.3)
Averaged from 23 records on 25 April, 2013
WEATHER CONDITIONS BREAKOUT
WIND DIRECTION BREAKOUT
WEATHER BY HOUR - 25 APRIL, 2013
[ °F ]   °C
Local TimeTemperatureDewpointHumidityBarometerVisibilityWind DirectionWind SpeedGust SpeedPrecipitationEventsConditions
1:54 AM2.2 °C0 °C86 %1024.7 hPa16.1 kmCalmClear
2:54 AM2.2 °C0.6 °C89 %1024.4 hPa16.1 kmCalmClear
3:54 AM5 °C-1.1 °C65 %1024.4 hPa16.1 kmWSW (240°)14.8 km/hClear
4:54 AM6.1 °C-1.7 °C58 %1024.4 hPa16.1 kmWSW (240°)18.5 km/hClear
5:54 AM5 °C-1.7 °C62 %1025.1 hPa16.1 kmWSW (250°)14.8 km/hClear
6:54 AM5 °C-0.6 °C67 %1025.7 hPa16.1 kmWest (260°)13 km/hClear
7:54 AM7.2 °C0.6 °C63 %1026.4 hPa16.1 kmWest (260°)14.8 km/hClear
8:54 AM9.4 °C1.1 °C56 %1027.4 hPa16.1 kmWest (270°)13 km/hClear
9:54 AM11.7 °C-1.1 °C41 %1027.8 hPa16.1 kmWNW (300°)16.7 km/hClear
10:54 AM12.2 °C-3.9 °C33 %1028.1 hPa16.1 kmVariable7.4 km/hClear
11:54 AM13.9 °C-2.8 °C32 %1028.1 hPa16.1 kmVariable9.3 km/hClear
12:54 PM15.6 °C-1.7 °C31 %1027.8 hPa16.1 kmWest (280°)18.5 km/h33.3 km/hPartly Cloudy
1:54 PM15.6 °C-2.2 °C30 %1027.4 hPa16.1 kmVariable7.4 km/hPartly Cloudy
2:54 PM16.7 °C-1.1 °C30 %1026.8 hPa16.1 kmCalmClear
3:54 PM17.8 °C-0.6 °C29 %1026.1 hPa16.1 kmNNE (20°)13 km/hScattered Clouds
4:54 PM17.8 °C-0.6 °C29 %1025.4 hPa16.1 kmNNE (20°)9.3 km/hPartly Cloudy
5:54 PM17.8 °C-1.1 °C28 %1025.7 hPa16.1 kmCalmScattered Clouds
6:54 PM15.6 °C1.1 °C38 %1025.4 hPa16.1 kmENE (70°)14.8 km/hClear
7:54 PM12.8 °C3.9 °C55 %1025.4 hPa16.1 kmCalmClear
8:54 PM10.6 °C4.4 °C66 %1025.7 hPa16.1 kmCalmClear
9:54 PM13.3 °C0.6 °C42 %1026.1 hPa16.1 kmESE (110°)11.1 km/hClear
10:54 PM12.2 °C1.7 °C49 %1026.1 hPa16.1 kmSE (130°)7.4 km/hClear
11:54 PM11.7 °C1.7 °C50 %1026.1 hPa16.1 kmEast (90°)5.6 km/hClear
Hourly data recorded from KSUS, located 0 kilometers away from St. Louis, Missouri







STORIES FROM OUR PARTNERS